Weather History for Cut Bank, MT

Change the Weather History Date:

Sunday, May 11, 2014

  Actual Average Record
Temperature  
Mean Temperature 39 °F 48 °F  
Max Temperature 47 °F 61 °F 86 °F (1993)
Min Temperature 30 °F 36 °F 20 °F (2012)
Degree Days  
Heating Degree Days 26 17  
Month to date heating degree days 245 199  
Since 1 July heating degree days 8380 8019  
Cooling Degree Days 0 0  
Month to date cooling degree days 0 0  
Year to date cooling degree days 0 0  
Moisture  
Dew Point 28 °F    
Average Humidity 69    
Maximum Humidity 100    
Minimum Humidity 37    
Precipitation  
Precipitation 0.01 in 0.06 in 0.92 in (1991)
Month to date precipitation 0.40 0.47  
Year to date precipitation 3.90 2.16  
Snow  
Snow 0.00 in - - ()
Snow Depth 4.00 in    
Sea Level Pressure  
Sea Level Pressure 30.31 in    
Wind  
Wind Speed 9 mph (NNW)    
Max Wind Speed 23 mph    
Max Gust Speed 28 mph    
Visibility 6 miles    
Events Snow    
T = Trace of Precipitation, MM = Missing Value Source: NWS Daily Summary

Daily Weather History Graph

Daily Weather History Graph

Search for Another Location

Airport:

Trip Planner

Search our weather history database for the weather conditions in past years. The results will help you decide how hot, cold, wet, or windy it might be!

Date:

Astronomy

May. 11, 2014 Rise Set
Actual Time 5:54 AM MDT 8:58 PM MDT
Civil Twilight 5:17 AM MDT 9:35 PM MDT
Nautical Twilight 4:29 AM MDT 10:24 PM MDT
Astronomical Twilight 3:29 AM MDT 11:24 PM MDT
Moon 5:43 PM MDT (5/11) 4:18 AM MDT (5/11)
Length of Visible Light 16h 18m
Length of Day
15h 04m
Waxing Gibbous, 89% of the Moon is Illuminated
May 11
Waxing Gibbous
May 14
Full
May 21
Last Quarter
May 28
New
Jun 5
First Quarter

Hourly Weather History & Observations

Time (MDT) Temp. Windchill Dew Point Humidity Pressure Visibility Wind Dir Wind Speed Gust Speed Precip Events Conditions
12:12 AM 33.1 °F 21.5 °F 32.0 °F 96% 30.18 in 0.8 mi North 19.6 mph - 0.00 in Snow Light Snow
12:27 AM 32.0 °F 21.2 °F 32.0 °F 100% 30.18 in 1.0 mi North 16.1 mph - 0.00 in Snow Light Snow
12:34 AM 32.0 °F 20.8 °F 32.0 °F 100% 30.18 in 0.8 mi North 17.3 mph - 0.00 in Snow Light Snow
12:44 AM 33.1 °F 21.9 °F 32.0 °F 96% 30.19 in 1.0 mi North 18.4 mph - 0.01 in Snow Light Snow
12:56 AM 33.1 °F 21.9 °F 32.0 °F 96% 30.25 in 1.2 mi North 18.4 mph - 0.01 in Snow Light Snow
1:05 AM 32.0 °F 20.5 °F 32.0 °F 100% 30.20 in 0.8 mi North 18.4 mph - 0.00 in Snow Light Snow
1:24 AM 32.0 °F 20.1 °F 30.9 °F 96% 30.20 in 1.0 mi North 19.6 mph - 0.00 in Snow Light Snow
1:56 AM 32.0 °F 20.5 °F 30.9 °F 96% 30.27 in 0.8 mi North 18.4 mph - 0.00 in Snow Light Snow
2:08 AM 32.0 °F 20.5 °F 30.9 °F 96% 30.20 in 1.0 mi North 18.4 mph - 0.00 in Snow Light Snow
2:29 AM 32.0 °F 20.5 °F 30.9 °F 96% 30.21 in 1.2 mi NNW 18.4 mph - 0.00 in Snow Light Snow
2:56 AM 32.0 °F 19.8 °F 30.2 °F 93% 30.22 in 1.5 mi North 20.7 mph - N/A Snow Light Snow
3:21 AM 32.0 °F 19.5 °F 30.0 °F 92% 30.23 in 0.8 mi North 21.9 mph - 0.00 in Snow Light Snow
3:36 AM 30.9 °F 18.1 °F 30.0 °F 96% 30.23 in 0.8 mi NNE 21.9 mph - 0.00 in Snow Light Snow
3:46 AM 30.9 °F 18.4 °F 30.0 °F 96% 30.23 in 1.0 mi NNE 20.7 mph - 0.00 in Snow Light Snow
3:56 AM 30.9 °F 19.1 °F 30.0 °F 96% 30.30 in 1.2 mi North 18.4 mph - 0.00 in Snow Light Snow
4:13 AM 30.9 °F 20.7 °F 30.0 °F 96% 30.23 in 1.2 mi North 13.8 mph - 0.00 in Snow Light Snow
4:36 AM 30.9 °F 19.4 °F 30.0 °F 96% 30.24 in 1.5 mi NNW 17.3 mph - 0.00 in Snow Light Snow
4:45 AM 30.9 °F 18.7 °F 30.0 °F 96% 30.24 in 3.0 mi North 19.6 mph - 0.00 in Snow Light Snow
4:56 AM 30.9 °F 19.4 °F 28.9 °F 92% 30.30 in 8.0 mi North 17.3 mph - 0.00 in   Overcast
5:16 AM 30.9 °F 22.2 °F 28.9 °F 92% 30.25 in 9.0 mi North 10.4 mph - 0.00 in   Overcast
5:56 AM 30.2 °F 21.9 °F 28.4 °F 93% 30.26 in 10.0 mi NW 9.2 mph - N/A   Overcast
6:56 AM 30.0 °F 21.1 °F 27.0 °F 88% 30.35 in 10.0 mi NW 10.4 mph - N/A   Overcast
7:56 AM 30.9 °F 22.2 °F 27.0 °F 85% 30.38 in 10.0 mi NW 10.4 mph - N/A   Overcast
8:56 AM 33.1 °F 27.7 °F 23.0 °F 66% 30.40 in 10.0 mi North 5.8 mph - N/A   Overcast
9:56 AM 33.1 °F 26.9 °F 28.0 °F 82% 30.41 in 10.0 mi NW 6.9 mph - N/A   Overcast
10:56 AM 35.1 °F 29.3 °F 27.0 °F 72% 30.42 in 10.0 mi NW 6.9 mph - N/A   Overcast
11:56 AM 36.0 °F 29.0 °F 28.9 °F 76% 30.42 in 10.0 mi WSW 9.2 mph - N/A   Mostly Cloudy
12:56 PM 37.0 °F 30.4 °F 26.1 °F 65% 30.41 in 10.0 mi WSW 9.2 mph - N/A   Mostly Cloudy
1:56 PM 39.9 °F 34.5 °F 25.0 °F 55% 30.41 in 10.0 mi SW 8.1 mph - N/A   Overcast
2:56 PM 42.1 °F 40.2 °F 24.1 °F 49% 30.40 in 10.0 mi Variable 3.5 mph - N/A   Overcast
3:56 PM 45.0 °F 39.7 °F 23.0 °F 42% 30.40 in 10.0 mi North 10.4 mph - N/A   Overcast
4:56 PM 45.0 °F 43.5 °F 21.0 °F 39% 30.39 in 10.0 mi Variable 3.5 mph - N/A   Mostly Cloudy
5:56 PM 46.0 °F 42.5 °F 21.0 °F 37% 30.39 in 10.0 mi NNW 6.9 mph - N/A   Mostly Cloudy
6:56 PM 45.0 °F 42.6 °F 19.9 °F 37% 30.40 in 10.0 mi WNW 4.6 mph - N/A   Overcast
7:56 PM 43.0 °F 41.3 °F 24.1 °F 47% 30.41 in 10.0 mi NNE 3.5 mph - N/A   Mostly Cloudy
8:56 PM 39.0 °F 35.7 °F 25.0 °F 57% 30.43 in 10.0 mi NW 4.6 mph - N/A   Partly Cloudy
9:56 PM 35.1 °F 32.2 °F 25.0 °F 67% 30.45 in 10.0 mi SSW 3.5 mph - N/A   Clear
10:56 PM 35.1 °F 31.0 °F 24.1 °F 64% 30.45 in 10.0 mi SW 4.6 mph - N/A   Clear
11:56 PM 35.1 °F 31.0 °F 24.1 °F 64% 30.45 in 10.0 mi WSW 4.6 mph - N/A   Clear